Time,TemperatureF,DewpointF,PressureIn,WindDirection,WindDirectionDegrees,WindSpeedMPH,WindSpeedGustMPH,Humidity,HourlyPrecipIn,Conditions,Clouds,dailyrainin,SoftwareType,DateUTC
2013-01-12 00:03:00,53.6,52.2,29.71,SW,225,8.8,8.8,95,0.00,,---,0.00,VWS V14.00,2013-01-12 06:03:00,
2013-01-12 00:08:00,53.8,52.4,29.71,SSE,158,6.3,6.3,95,0.00,,---,0.00,VWS V14.00,2013-01-12 06:08:00,
2013-01-12 00:13:00,53.6,52.2,29.71,South,180,4.9,4.9,95,0.00,,---,0.00,VWS V14.00,2013-01-12 06:13:00,
2013-01-12 00:18:00,53.4,52.0,29.71,WSW,248,2.7,2.7,95,0.00,,---,0.00,VWS V14.00,2013-01-12 06:18:00,
2013-01-12 00:23:00,53.4,52.0,29.71,SSW,202,4.9,4.9,95,0.00,,---,0.00,VWS V14.00,2013-01-12 06:23:00,
2013-01-12 00:28:00,53.4,52.3,29.71,SW,225,4.6,4.6,96,0.00,,---,0.00,VWS V14.00,2013-01-12 06:28:00,
2013-01-12 00:34:00,53.6,52.5,29.71,SSW,202,7.2,7.2,96,0.00,,---,0.00,VWS V14.00,2013-01-12 06:34:00,
2013-01-12 00:39:00,53.8,52.7,29.71,SW,225,3.8,3.8,96,0.00,,---,0.00,VWS V14.00,2013-01-12 06:39:00,
2013-01-12 00:44:00,53.8,52.7,29.71,SSW,202,5.5,5.8,96,0.00,,---,0.00,VWS V14.00,2013-01-12 06:44:00,
2013-01-12 00:49:00,53.8,52.7,29.71,SSW,202,4.4,4.4,96,0.00,,---,0.00,VWS V14.00,2013-01-12 06:49:00,
2013-01-12 00:54:00,54.0,52.8,29.71,SW,225,5.8,5.8,96,0.00,,---,0.00,VWS V14.00,2013-01-12 06:54:00,
2013-01-12 01:00:00,54.0,52.8,29.71,South,180,4.1,4.1,96,0.00,,---,0.00,VWS V14.00,2013-01-12 07:00:00,
2013-01-12 01:05:00,54.1,53.3,29.71,South,180,5.8,5.8,97,0.00,,---,0.00,VWS V14.00,2013-01-12 07:05:00,
2013-01-12 01:10:00,54.1,53.3,29.71,SE,135,5.5,5.5,97,0.00,,---,0.00,VWS V14.00,2013-01-12 07:10:00,
2013-01-12 01:16:00,54.3,53.5,29.71,SSE,158,5.2,5.2,97,0.00,,---,0.00,VWS V14.00,2013-01-12 07:16:00,
2013-01-12 01:21:00,54.3,53.5,29.71,SSW,202,5.5,6.0,97,0.00,,---,0.00,VWS V14.00,2013-01-12 07:21:00,
2013-01-12 01:26:00,54.5,54.0,29.71,SSE,158,4.9,4.9,98,0.00,,---,0.00,VWS V14.00,2013-01-12 07:26:00,
2013-01-12 01:31:00,54.5,54.0,29.71,SSW,202,4.1,4.1,98,0.00,,---,0.00,VWS V14.00,2013-01-12 07:31:00,
2013-01-12 01:36:00,54.3,53.8,29.71,SSW,202,6.0,6.0,98,0.00,,---,0.00,VWS V14.00,2013-01-12 07:36:00,
2013-01-12 01:41:00,54.3,53.5,29.71,SW,225,5.2,5.2,97,0.00,,---,0.00,VWS V14.00,2013-01-12 07:41:00,
2013-01-12 01:46:00,54.3,53.8,29.71,WSW,248,4.9,4.9,98,0.00,,---,0.00,VWS V14.00,2013-01-12 07:46:00,
2013-01-12 01:51:00,54.3,53.8,29.71,WSW,248,4.4,4.4,98,0.00,,---,0.00,VWS V14.00,2013-01-12 07:51:00,
2013-01-12 01:57:00,54.3,53.8,29.71,South,180,4.1,4.1,98,0.00,,---,0.00,VWS V14.00,2013-01-12 07:57:00,
2013-01-12 02:02:00,54.5,54.0,29.74,South,180,3.8,6.0,98,0.00,,---,0.00,VWS V14.00,2013-01-12 08:02:00,
2013-01-12 02:07:00,54.9,54.3,29.74,SSW,202,5.2,5.2,98,0.00,,---,0.00,VWS V14.00,2013-01-12 08:07:00,
2013-01-12 02:13:00,55.2,54.7,29.74,SSW,202,4.1,4.1,98,0.00,,---,0.00,VWS V14.00,2013-01-12 08:13:00,
2013-01-12 02:18:00,55.8,55.2,29.71,SSE,158,4.4,5.8,98,0.00,,---,0.00,VWS V14.00,2013-01-12 08:18:00,
2013-01-12 02:23:00,55.9,55.4,29.71,WSW,248,4.9,4.9,98,0.00,,---,0.00,VWS V14.00,2013-01-12 08:23:00,
2013-01-12 02:28:00,56.3,55.8,29.71,South,180,4.1,4.1,98,0.00,,---,0.00,VWS V14.00,2013-01-12 08:28:00,
2013-01-12 02:33:00,56.3,55.8,29.71,SW,225,3.8,3.8,98,0.00,,---,0.00,VWS V14.00,2013-01-12 08:33:00,
2013-01-12 02:38:00,56.5,55.9,29.71,SE,135,3.5,3.6,98,0.00,,---,0.00,VWS V14.00,2013-01-12 08:38:00,
2013-01-12 02:43:00,56.7,56.1,29.71,SSW,202,2.1,2.5,98,0.00,,---,0.00,VWS V14.00,2013-01-12 08:43:00,
2013-01-12 02:49:00,56.8,56.3,29.71,South,180,3.0,3.0,98,0.00,,---,0.00,VWS V14.00,2013-01-12 08:49:00,
2013-01-12 02:54:00,57.0,56.5,29.71,South,180,3.0,3.6,98,0.00,,---,0.00,VWS V14.00,2013-01-12 08:54:00,
2013-01-12 03:01:00,57.2,56.6,29.71,SW,225,2.1,2.1,98,0.00,,---,0.00,VWS V14.00,2013-01-12 09:01:00,
2013-01-12 03:06:00,57.2,56.6,29.71,West,270,1.0,2.9,98,0.00,,---,0.00,VWS V14.00,2013-01-12 09:06:00,
2013-01-12 03:11:00,57.4,56.8,29.71,WSW,248,4.1,4.1,98,0.00,,---,0.00,VWS V14.00,2013-01-12 09:11:00,
2013-01-12 03:16:00,57.4,56.8,29.71,WSW,248,1.0,2.0,98,0.00,,---,0.00,VWS V14.00,2013-01-12 09:16:00,
2013-01-12 03:21:00,57.4,56.8,29.71,West,270,1.0,1.6,98,0.00,,---,0.00,VWS V14.00,2013-01-12 09:21:00,
2013-01-12 03:26:00,57.4,56.8,29.71,WNW,292,2.7,2.7,98,0.00,,---,0.00,VWS V14.00,2013-01-12 09:26:00,
2013-01-12 03:31:00,57.4,56.8,29.71,SSW,202,1.0,2.9,98,0.00,,---,0.00,VWS V14.00,2013-01-12 09:31:00,
2013-01-12 03:37:00,57.4,56.8,29.71,SSW,202,3.5,3.5,98,0.00,,---,0.00,VWS V14.00,2013-01-12 09:37:00,
2013-01-12 03:42:00,57.6,57.0,29.71,SSW,202,1.0,2.7,98,0.00,,---,0.00,VWS V14.00,2013-01-12 09:42:00,
2013-01-12 03:47:00,57.7,57.2,29.71,SSW,202,7.2,7.2,98,0.00,,---,0.00,VWS V14.00,2013-01-12 09:47:00,
2013-01-12 03:52:00,57.9,57.4,29.71,SW,225,6.3,6.3,98,0.00,,---,0.00,VWS V14.00,2013-01-12 09:52:00,
2013-01-12 03:58:00,58.3,57.7,29.71,SSW,202,4.6,4.6,98,0.00,,---,0.00,VWS V14.00,2013-01-12 09:58:00,
2013-01-12 04:03:00,58.6,58.1,29.71,SW,225,7.7,7.8,98,0.00,,---,0.00,VWS V14.00,2013-01-12 10:03:00,
2013-01-12 04:09:00,59.0,58.4,29.71,South,180,5.2,5.2,98,0.00,,---,0.00,VWS V14.00,2013-01-12 10:09:00,
2013-01-12 04:14:00,59.0,58.4,29.71,SE,135,4.1,4.1,98,0.00,,---,0.00,VWS V14.00,2013-01-12 10:14:00,
2013-01-12 04:19:00,59.2,58.6,29.71,SW,225,4.4,6.5,98,0.00,,---,0.00,VWS V14.00,2013-01-12 10:19:00,
2013-01-12 04:24:00,59.4,58.8,29.71,South,180,1.0,2.0,98,0.00,,---,0.00,VWS V14.00,2013-01-12 10:24:00,
2013-01-12 04:29:00,59.4,58.8,29.71,South,180,3.5,3.5,98,0.00,,---,0.00,VWS V14.00,2013-01-12 10:29:00,
2013-01-12 04:34:00,59.5,59.0,29.71,South,180,4.9,4.9,98,0.00,,---,0.00,VWS V14.00,2013-01-12 10:34:00,
2013-01-12 04:39:00,59.4,58.8,29.71,South,180,3.8,3.8,98,0.00,,---,0.00,VWS V14.00,2013-01-12 10:39:00,
2013-01-12 04:44:00,59.4,58.8,29.71,South,180,3.0,3.0,98,0.00,,---,0.00,VWS V14.00,2013-01-12 10:44:00,
2013-01-12 04:49:00,59.4,58.8,29.71,South,180,4.9,4.9,98,0.00,,---,0.00,VWS V14.00,2013-01-12 10:49:00,
2013-01-12 04:54:00,59.5,59.0,29.71,SW,225,4.4,4.4,98,0.00,,---,0.00,VWS V14.00,2013-01-12 10:54:00,
2013-01-12 04:59:00,59.5,59.0,29.71,SW,225,2.4,2.4,98,0.00,,---,0.00,VWS V14.00,2013-01-12 10:59:00,
2013-01-12 05:04:00,59.5,59.0,29.71,SSE,158,4.6,4.6,98,0.00,,---,0.00,VWS V14.00,2013-01-12 11:04:00,
2013-01-12 05:09:00,59.5,59.0,29.71,SE,135,3.0,3.0,98,0.00,,---,0.00,VWS V14.00,2013-01-12 11:09:00,
2013-01-12 05:14:00,59.7,59.2,29.71,SSW,202,6.3,6.3,98,0.00,,---,0.00,VWS V14.00,2013-01-12 11:14:00,
2013-01-12 05:19:00,59.5,59.0,29.71,SSE,158,4.4,4.4,98,0.00,,---,0.00,VWS V14.00,2013-01-12 11:19:00,
2013-01-12 05:24:00,59.7,59.2,29.71,SSE,158,3.5,3.5,98,0.00,,---,0.00,VWS V14.00,2013-01-12 11:24:00,
2013-01-12 05:30:00,59.7,59.2,29.71,SW,225,4.1,4.1,98,0.00,,---,0.00,VWS V14.00,2013-01-12 11:30:00,
2013-01-12 05:35:00,59.7,59.2,29.71,WSW,248,4.6,4.6,98,0.00,,---,0.00,VWS V14.00,2013-01-12 11:35:00,
2013-01-12 05:40:00,59.7,59.2,29.71,SW,225,2.4,2.5,98,0.00,,---,0.00,VWS V14.00,2013-01-12 11:40:00,
2013-01-12 05:46:00,59.7,59.2,29.71,SSW,202,2.4,2.4,98,0.00,,---,0.00,VWS V14.00,2013-01-12 11:46:00,
2013-01-12 05:51:00,59.7,59.2,29.71,WSW,248,3.0,3.0,98,0.00,,---,0.00,VWS V14.00,2013-01-12 11:51:00,
2013-01-12 05:56:00,59.9,59.3,29.71,West,270,2.1,3.1,98,0.00,,---,0.00,VWS V14.00,2013-01-12 11:56:00,
2013-01-12 06:01:00,60.1,59.5,29.71,SW,225,2.4,2.5,98,0.00,,---,0.00,VWS V14.00,2013-01-12 12:01:00,
2013-01-12 06:06:00,60.1,59.5,29.71,SW,225,4.9,4.9,98,0.00,,---,0.00,VWS V14.00,2013-01-12 12:06:00,
2013-01-12 06:11:00,60.4,59.9,29.71,South,180,5.5,6.0,98,0.00,,---,0.00,VWS V14.00,2013-01-12 12:11:00,
2013-01-12 06:16:00,60.4,59.9,29.71,SSW,202,4.4,4.4,98,0.00,,---,0.00,VWS V14.00,2013-01-12 12:16:00,
2013-01-12 06:22:00,60.6,60.1,29.71,WSW,248,6.3,6.3,98,0.00,,---,0.00,VWS V14.00,2013-01-12 12:22:00,
2013-01-12 06:27:00,60.6,60.1,29.71,SSE,158,5.8,5.8,98,0.00,,---,0.00,VWS V14.00,2013-01-12 12:27:00,
2013-01-12 06:32:00,60.6,60.1,29.74,South,180,6.3,6.3,98,0.00,,---,0.00,VWS V14.00,2013-01-12 12:32:00,
2013-01-12 06:38:00,60.6,60.1,29.74,SSE,158,6.6,6.6,98,0.00,,---,0.00,VWS V14.00,2013-01-12 12:38:00,
2013-01-12 06:43:00,60.6,60.1,29.74,ESE,112,1.0,2.7,98,0.00,,---,0.00,VWS V14.00,2013-01-12 12:43:00,
2013-01-12 06:48:00,60.4,59.9,29.71,SE,135,5.8,5.8,98,0.00,,---,0.00,VWS V14.00,2013-01-12 12:48:00,
2013-01-12 06:53:00,60.4,59.9,29.71,South,180,4.9,4.9,98,0.00,,---,0.00,VWS V14.00,2013-01-12 12:53:00,
2013-01-12 06:59:00,60.4,59.9,29.71,South,180,2.4,3.6,98,0.00,,---,0.00,VWS V14.00,2013-01-12 12:59:00,
2013-01-12 07:04:00,60.4,59.9,29.71,SSE,158,3.5,4.0,98,0.00,,---,0.00,VWS V14.00,2013-01-12 13:04:00,
2013-01-12 07:10:00,60.6,60.1,29.71,South,180,6.0,6.0,98,0.00,,---,0.00,VWS V14.00,2013-01-12 13:10:00,
2013-01-12 07:15:00,60.8,60.2,29.71,South,180,5.5,5.5,98,0.00,,---,0.00,VWS V14.00,2013-01-12 13:15:00,
2013-01-12 07:21:00,60.6,60.1,29.71,SSE,158,4.6,4.6,98,0.00,,---,0.00,VWS V14.00,2013-01-12 13:21:00,
2013-01-12 07:26:00,60.6,60.1,29.71,SSE,158,2.7,2.7,98,0.00,,---,0.00,VWS V14.00,2013-01-12 13:26:00,
2013-01-12 07:31:00,60.4,59.9,29.71,SSW,202,2.4,2.4,98,0.00,,---,0.00,VWS V14.00,2013-01-12 13:31:00,
2013-01-12 07:36:00,60.4,59.9,29.74,SSW,202,4.9,4.9,98,0.00,,---,0.00,VWS V14.00,2013-01-12 13:36:00,
2013-01-12 07:41:00,60.4,59.9,29.74,South,180,4.1,4.9,98,0.00,,---,0.00,VWS V14.00,2013-01-12 13:41:00,
2013-01-12 07:46:00,60.6,60.1,29.71,South,180,2.7,2.7,98,0.00,,---,0.00,VWS V14.00,2013-01-12 13:46:00,
2013-01-12 07:51:00,60.4,59.9,29.71,SSE,158,1.0,2.0,98,0.00,,---,0.00,VWS V14.00,2013-01-12 13:51:00,
2013-01-12 07:56:00,60.6,60.1,29.71,South,180,1.0,0.0,98,0.00,,---,0.00,VWS V14.00,2013-01-12 13:56:00,
2013-01-12 08:01:00,60.6,60.1,29.74,SSW,202,1.0,1.0,98,0.00,,---,0.00,VWS V14.00,2013-01-12 14:01:00,
2013-01-12 08:07:00,60.8,60.2,29.74,West,270,1.0,0.0,98,0.00,,---,0.00,VWS V14.00,2013-01-12 14:07:00,
2013-01-12 08:12:00,60.8,60.2,29.74,SE,135,1.0,0.0,98,0.00,,---,0.00,VWS V14.00,2013-01-12 14:12:00,
2013-01-12 08:17:00,61.0,60.4,29.74,ESE,112,2.4,2.4,98,0.00,,---,0.00,VWS V14.00,2013-01-12 14:17:00,
2013-01-12 08:22:00,61.0,60.4,29.74,SE,135,3.5,3.5,98,0.00,,---,0.00,VWS V14.00,2013-01-12 14:22:00,
2013-01-12 08:27:00,61.0,60.4,29.74,SSE,158,1.0,1.1,98,0.00,,---,0.00,VWS V14.00,2013-01-12 14:27:00,
2013-01-12 08:32:00,61.2,60.6,29.74,SSE,158,2.1,2.1,98,0.00,,---,0.00,VWS V14.00,2013-01-12 14:32:00,
2013-01-12 08:37:00,61.3,60.8,29.74,SSE,158,1.0,0.0,98,0.00,,---,0.00,VWS V14.00,2013-01-12 14:37:00,
2013-01-12 08:42:00,61.5,61.0,29.74,SSE,158,1.0,0.0,98,0.00,,---,0.00,VWS V14.00,2013-01-12 14:42:00,
2013-01-12 08:48:00,61.7,61.1,29.74,ESE,112,1.0,0.0,98,0.00,,---,0.00,VWS V14.00,2013-01-12 14:48:00,
2013-01-12 08:54:00,61.9,61.3,29.74,SSE,158,4.1,4.1,98,0.00,,---,0.00,VWS V14.00,2013-01-12 14:54:00,
2013-01-12 08:59:00,62.2,61.7,29.74,SSE,158,3.0,3.0,98,0.00,,---,0.00,VWS V14.00,2013-01-12 14:59:00,
2013-01-12 09:05:00,62.4,61.8,29.71,SE,135,3.0,3.0,98,0.00,,---,0.00,VWS V14.00,2013-01-12 15:05:00,
2013-01-12 09:10:00,62.6,62.0,29.71,SSW,202,2.4,2.4,98,0.00,,---,0.00,VWS V14.00,2013-01-12 15:10:00,
2013-01-12 09:15:00,63.0,62.4,29.71,South,180,1.0,0.0,98,0.00,,---,0.00,VWS V14.00,2013-01-12 15:15:00,
2013-01-12 09:21:00,63.1,62.6,29.71,SSW,202,1.0,0.0,98,0.00,,---,0.00,VWS V14.00,2013-01-12 15:21:00,
2013-01-12 09:26:00,63.3,62.8,29.71,SSW,202,2.1,2.1,98,0.00,,---,0.00,VWS V14.00,2013-01-12 15:26:00,
2013-01-12 09:32:00,63.3,62.8,29.71,SW,225,2.1,2.1,98,0.00,,---,0.00,VWS V14.00,2013-01-12 15:32:00,
2013-01-12 09:37:00,63.3,62.8,29.71,SW,225,2.4,2.4,98,0.00,,---,0.00,VWS V14.00,2013-01-12 15:37:00,
2013-01-12 09:42:00,63.5,62.9,29.71,SSW,202,2.4,4.0,98,0.00,,---,0.00,VWS V14.00,2013-01-12 15:42:00,
2013-01-12 09:47:00,63.5,62.9,29.71,South,180,4.4,4.4,98,0.00,,---,0.00,VWS V14.00,2013-01-12 15:47:00,
2013-01-12 09:53:00,63.5,62.9,29.71,SSW,202,2.1,2.1,98,0.00,,---,0.00,VWS V14.00,2013-01-12 15:53:00,
2013-01-12 09:59:00,63.3,62.8,29.71,SSW,202,4.6,4.6,98,0.00,,---,0.00,VWS V14.00,2013-01-12 15:59:00,
2013-01-12 10:04:00,63.1,62.6,29.71,SSE,158,1.0,1.6,98,0.00,,---,0.00,VWS V14.00,2013-01-12 16:04:00,
2013-01-12 10:09:00,63.1,62.6,29.71,SSE,158,2.4,2.4,98,0.00,,---,0.00,VWS V14.00,2013-01-12 16:09:00,
2013-01-12 10:15:00,63.1,62.6,29.71,SSE,158,1.0,0.0,98,0.00,,---,0.00,VWS V14.00,2013-01-12 16:15:00,
2013-01-12 10:20:00,63.0,62.4,29.71,SE,135,1.0,0.0,98,0.00,,---,0.00,VWS V14.00,2013-01-12 16:20:00,
2013-01-12 10:25:00,63.0,62.4,29.71,ENE,68,1.0,0.0,98,0.00,,---,0.00,VWS V14.00,2013-01-12 16:25:00,
2013-01-12 10:30:00,63.0,62.4,29.68,North,0,4.1,4.1,98,0.00,,---,0.00,VWS V14.00,2013-01-12 16:30:00,
2013-01-12 10:35:00,63.0,62.4,29.68,North,0,1.0,0.0,98,0.00,,---,0.00,VWS V14.00,2013-01-12 16:35:00,
2013-01-12 10:40:00,63.0,62.4,29.68,North,0,1.0,0.0,98,0.00,,---,0.00,VWS V14.00,2013-01-12 16:40:00,
2013-01-12 10:46:00,63.0,62.4,29.68,North,0,1.0,0.0,98,0.00,,---,0.00,VWS V14.00,2013-01-12 16:46:00,
2013-01-12 10:51:00,63.1,62.6,29.68,North,0,1.0,0.0,98,0.00,,---,0.00,VWS V14.00,2013-01-12 16:51:00,
2013-01-12 10:56:00,63.1,62.6,29.68,North,0,1.0,0.0,98,0.00,,---,0.00,VWS V14.00,2013-01-12 16:56:00,
2013-01-12 11:02:00,63.3,62.8,29.68,ESE,112,2.1,2.1,98,0.00,,---,0.00,VWS V14.00,2013-01-12 17:02:00,
2013-01-12 11:07:00,63.1,62.6,29.68,ESE,112,1.0,0.0,98,0.00,,---,0.00,VWS V14.00,2013-01-12 17:07:00,
2013-01-12 11:12:00,63.1,62.6,29.68,North,0,2.1,2.1,98,0.00,,---,0.00,VWS V14.00,2013-01-12 17:12:00,
2013-01-12 11:17:00,63.1,62.6,29.65,NNW,338,2.1,2.1,98,0.05,,---,0.05,VWS V14.00,2013-01-12 17:17:00,
2013-01-12 11:22:00,63.1,62.6,29.65,SE,135,1.0,0.0,98,0.05,,---,0.05,VWS V14.00,2013-01-12 17:22:00,
2013-01-12 11:27:00,63.1,62.6,29.65,SE,135,1.0,0.0,98,0.05,,---,0.05,VWS V14.00,2013-01-12 17:27:00,
2013-01-12 11:32:00,63.1,62.6,29.65,SE,135,1.0,0.0,98,0.05,,---,0.05,VWS V14.00,2013-01-12 17:32:00,
2013-01-12 11:37:00,63.1,62.6,29.65,SE,135,1.0,0.0,98,0.05,,---,0.05,VWS V14.00,2013-01-12 17:37:00,
2013-01-12 11:42:00,63.1,62.6,29.65,SE,135,1.0,0.0,98,0.05,,---,0.05,VWS V14.00,2013-01-12 17:42:00,
2013-01-12 11:47:00,63.1,62.6,29.65,SE,135,1.0,0.0,98,0.09,,---,0.09,VWS V14.00,2013-01-12 17:47:00,
2013-01-12 11:53:00,63.1,62.6,29.65,WSW,248,3.8,3.8,98,0.17,,---,0.17,VWS V14.00,2013-01-12 17:53:00,
2013-01-12 11:58:00,63.1,62.6,29.65,NNW,338,1.0,1.3,98,0.21,,---,0.21,VWS V14.00,2013-01-12 17:58:00,
2013-01-12 12:04:00,63.1,62.6,29.65,NW,315,2.7,2.7,98,0.21,,---,0.21,VWS V14.00,2013-01-12 18:04:00,
2013-01-12 12:10:00,63.1,62.6,29.65,East,90,2.1,2.1,98,0.21,,---,0.21,VWS V14.00,2013-01-12 18:10:00,
2013-01-12 12:15:00,63.1,62.6,29.62,NE,45,1.0,0.0,98,0.21,,---,0.21,VWS V14.00,2013-01-12 18:15:00,
2013-01-12 12:20:00,63.3,62.8,29.62,SE,135,2.7,2.7,98,0.20,,---,0.25,VWS V14.00,2013-01-12 18:20:00,
2013-01-12 12:25:00,63.5,62.9,29.62,NE,45,1.0,0.0,98,0.20,,---,0.25,VWS V14.00,2013-01-12 18:25:00,
2013-01-12 12:30:00,63.5,62.9,29.62,ENE,68,1.0,0.0,98,0.20,,---,0.25,VWS V14.00,2013-01-12 18:30:00,
2013-01-12 12:36:00,63.5,62.9,29.62,North,0,1.0,1.3,98,0.25,,---,0.30,VWS V14.00,2013-01-12 18:36:00,
2013-01-12 12:41:00,63.3,62.8,29.62,NW,315,1.0,0.0,98,0.28,,---,0.33,VWS V14.00,2013-01-12 18:41:00,
2013-01-12 12:46:00,63.5,62.9,29.59,ESE,112,3.0,3.0,98,0.24,,---,0.33,VWS V14.00,2013-01-12 18:46:00,
2013-01-12 12:51:00,63.7,63.1,29.59,SSE,158,3.0,3.0,98,0.25,,---,0.38,VWS V14.00,2013-01-12 18:51:00,
2013-01-12 12:56:00,63.7,63.1,29.59,SE,135,4.6,4.6,98,0.17,,---,0.38,VWS V14.00,2013-01-12 18:56:00,
2013-01-12 13:01:00,63.9,63.3,29.59,ESE,112,6.0,6.0,98,0.17,,---,0.38,VWS V14.00,2013-01-12 19:01:00,
2013-01-12 13:06:00,63.7,63.1,29.59,ESE,112,4.1,4.1,98,0.17,,---,0.38,VWS V14.00,2013-01-12 19:06:00,
2013-01-12 13:12:00,63.9,63.3,29.59,SE,135,5.2,5.2,98,0.17,,---,0.38,VWS V14.00,2013-01-12 19:12:00,
2013-01-12 13:17:00,63.7,63.1,29.59,ESE,112,4.1,4.1,98,0.17,,---,0.38,VWS V14.00,2013-01-12 19:17:00,
2013-01-12 13:22:00,63.7,63.1,29.59,SE,135,4.6,4.6,98,0.13,,---,0.38,VWS V14.00,2013-01-12 19:22:00,
2013-01-12 13:27:00,63.9,63.3,29.59,ESE,112,6.3,6.3,98,0.13,,---,0.38,VWS V14.00,2013-01-12 19:27:00,
2013-01-12 13:32:00,63.7,63.1,29.59,SSW,202,1.0,1.6,98,0.13,,---,0.38,VWS V14.00,2013-01-12 19:32:00,
2013-01-12 13:38:00,63.7,63.1,29.59,SW,225,1.0,1.0,98,0.08,,---,0.38,VWS V14.00,2013-01-12 19:38:00,
2013-01-12 13:44:00,63.7,63.1,29.59,SSE,158,1.0,2.2,98,0.05,,---,0.38,VWS V14.00,2013-01-12 19:44:00,
2013-01-12 13:49:00,63.7,63.1,29.59,SSE,158,3.5,3.5,98,0.00,,---,0.38,VWS V14.00,2013-01-12 19:49:00,
2013-01-12 13:54:00,63.7,63.1,29.59,SSE,158,4.4,4.4,98,0.00,,---,0.38,VWS V14.00,2013-01-12 19:54:00,
2013-01-12 13:59:00,63.9,63.3,29.59,South,180,2.4,2.7,98,0.00,,---,0.38,VWS V14.00,2013-01-12 19:59:00,
2013-01-12 14:04:00,63.9,63.3,29.59,SSE,158,5.2,5.2,98,0.00,,---,0.38,VWS V14.00,2013-01-12 20:04:00,
2013-01-12 14:11:00,63.9,63.3,29.59,SW,225,5.5,5.5,98,0.00,,---,0.38,VWS V14.00,2013-01-12 20:11:00,
2013-01-12 14:16:00,64.0,63.5,29.56,SSE,158,3.5,3.5,98,0.00,,---,0.38,VWS V14.00,2013-01-12 20:16:00,
2013-01-12 14:22:00,64.2,63.7,29.56,SSE,158,3.0,3.8,98,0.00,,---,0.38,VWS V14.00,2013-01-12 20:22:00,
2013-01-12 14:27:00,64.9,64.4,29.56,South,180,9.1,9.1,98,0.00,,---,0.38,VWS V14.00,2013-01-12 20:27:00,
2013-01-12 14:33:00,65.3,64.7,29.56,South,180,6.9,6.9,98,0.00,,---,0.38,VWS V14.00,2013-01-12 20:33:00,
2013-01-12 14:38:00,65.7,65.1,29.56,SSW,202,6.6,6.6,98,0.00,,---,0.38,VWS V14.00,2013-01-12 20:38:00,
2013-01-12 14:43:00,66.0,65.4,29.56,SSE,158,6.3,6.3,98,0.00,,---,0.38,VWS V14.00,2013-01-12 20:43:00,
2013-01-12 14:49:00,66.2,65.6,29.56,SSE,158,10.8,10.8,98,0.00,,---,0.38,VWS V14.00,2013-01-12 20:49:00,
2013-01-12 14:54:00,66.2,65.6,29.56,South,180,4.9,6.3,98,0.00,,---,0.38,VWS V14.00,2013-01-12 20:54:00,
2013-01-12 15:00:00,66.4,65.8,29.56,South,180,11.1,11.1,98,0.00,,---,0.38,VWS V14.00,2013-01-12 21:00:00,
2013-01-12 15:05:00,66.4,65.8,29.56,ESE,112,10.8,10.8,98,0.00,,---,0.38,VWS V14.00,2013-01-12 21:05:00,
2013-01-12 15:10:00,66.4,65.8,29.56,ESE,112,10.5,10.5,98,0.00,,---,0.38,VWS V14.00,2013-01-12 21:10:00,
2013-01-12 15:15:00,66.4,65.8,29.56,South,180,10.8,10.8,98,0.00,,---,0.38,VWS V14.00,2013-01-12 21:15:00,
2013-01-12 15:20:00,66.4,65.8,29.56,SSE,158,5.2,5.8,98,0.00,,---,0.38,VWS V14.00,2013-01-12 21:20:00,
2013-01-12 15:25:00,66.6,66.0,29.56,SSE,158,7.7,8.1,98,0.00,,---,0.38,VWS V14.00,2013-01-12 21:25:00,
2013-01-12 15:31:00,66.6,66.0,29.56,SSE,158,7.2,7.2,98,0.00,,---,0.38,VWS V14.00,2013-01-12 21:31:00,
2013-01-12 15:36:00,66.7,66.2,29.53,South,180,5.8,5.8,98,0.00,,---,0.38,VWS V14.00,2013-01-12 21:36:00,
2013-01-12 15:42:00,66.7,66.2,29.53,SE,135,11.9,11.9,98,0.00,,---,0.38,VWS V14.00,2013-01-12 21:42:00,
2013-01-12 15:47:00,66.9,66.3,29.53,South,180,8.6,9.6,98,0.00,,---,0.38,VWS V14.00,2013-01-12 21:47:00,
2013-01-12 15:52:00,66.9,66.3,29.53,SSW,202,13.3,13.3,98,0.00,,---,0.38,VWS V14.00,2013-01-12 21:52:00,
2013-01-12 15:57:00,66.9,66.3,29.53,SSE,158,11.1,12.5,98,0.00,,---,0.38,VWS V14.00,2013-01-12 21:57:00,
2013-01-12 16:02:00,66.9,66.3,29.53,WSW,248,6.0,11.0,98,0.00,,---,0.38,VWS V14.00,2013-01-12 22:02:00,
2013-01-12 16:07:00,66.9,66.3,29.53,SW,225,8.3,10.3,98,0.00,,---,0.38,VWS V14.00,2013-01-12 22:07:00,
2013-01-12 16:13:00,67.1,66.5,29.53,SSW,202,8.6,8.6,98,0.00,,---,0.38,VWS V14.00,2013-01-12 22:13:00,
2013-01-12 16:18:00,66.9,66.3,29.56,SSE,158,8.0,8.0,98,0.00,,---,0.38,VWS V14.00,2013-01-12 22:18:00,
2013-01-12 16:24:00,66.9,66.3,29.56,NE,45,10.0,10.0,98,0.00,,---,0.38,VWS V14.00,2013-01-12 22:24:00,
2013-01-12 16:29:00,66.9,66.3,29.56,SSW,202,6.0,7.6,98,0.00,,---,0.38,VWS V14.00,2013-01-12 22:29:00,
2013-01-12 16:34:00,66.9,66.3,29.53,SSE,158,14.4,14.4,98,0.00,,---,0.38,VWS V14.00,2013-01-12 22:34:00,
2013-01-12 16:41:00,66.9,66.3,29.53,SSE,158,16.9,16.9,98,0.00,,---,0.38,VWS V14.00,2013-01-12 22:41:00,
2013-01-12 16:46:00,66.9,66.3,29.53,South,180,8.0,10.1,98,0.00,,---,0.38,VWS V14.00,2013-01-12 22:46:00,
2013-01-12 16:51:00,66.9,66.3,29.53,SSE,158,20.0,20.0,98,0.00,,---,0.38,VWS V14.00,2013-01-12 22:51:00,
2013-01-12 16:56:00,66.9,66.3,29.53,SSE,158,25.1,25.1,98,0.00,,---,0.38,VWS V14.00,2013-01-12 22:56:00,
2013-01-12 17:01:00,66.7,66.2,29.53,West,270,8.8,12.3,98,0.00,,---,0.38,VWS V14.00,2013-01-12 23:01:00,
2013-01-12 17:08:00,66.7,66.2,29.53,SW,225,13.0,13.2,98,0.00,,---,0.38,VWS V14.00,2013-01-12 23:08:00,
2013-01-12 17:13:00,66.7,66.2,29.53,South,180,8.6,12.1,98,0.00,,---,0.38,VWS V14.00,2013-01-12 23:13:00,
2013-01-12 17:19:00,66.7,66.2,29.53,South,180,14.4,14.5,98,0.00,,---,0.38,VWS V14.00,2013-01-12 23:19:00,
2013-01-12 17:25:00,66.6,66.0,29.53,South,180,9.1,9.1,98,0.00,,---,0.38,VWS V14.00,2013-01-12 23:25:00,
2013-01-12 17:30:00,66.7,66.2,29.53,SE,135,13.9,13.9,98,0.00,,---,0.38,VWS V14.00,2013-01-12 23:30:00,
2013-01-12 17:35:00,66.7,66.2,29.53,SW,225,11.6,12.3,98,0.00,,---,0.38,VWS V14.00,2013-01-12 23:35:00,
2013-01-12 17:40:00,66.7,66.2,29.53,South,180,20.6,20.6,98,0.00,,---,0.38,VWS V14.00,2013-01-12 23:40:00,
2013-01-12 17:45:00,66.9,66.3,29.53,South,180,16.9,17.5,98,0.00,,---,0.38,VWS V14.00,2013-01-12 23:45:00,
2013-01-12 17:51:00,66.9,66.3,29.53,SSW,202,23.1,23.1,98,0.00,,---,0.38,VWS V14.00,2013-01-12 23:51:00,
2013-01-12 17:56:00,66.9,66.3,29.53,South,180,17.8,17.8,98,0.00,,---,0.38,VWS V14.00,2013-01-12 23:56:00,
2013-01-12 18:01:00,67.1,66.5,29.53,SE,135,17.5,17.5,98,0.00,,---,0.38,VWS V14.00,2013-01-13 00:01:00,
2013-01-12 18:06:00,67.1,66.5,29.53,SSE,158,18.6,26.6,98,0.00,,---,0.38,VWS V14.00,2013-01-13 00:06:00,
2013-01-12 18:11:00,67.1,66.5,29.53,South,180,17.5,17.5,98,0.00,,---,0.38,VWS V14.00,2013-01-13 00:11:00,
2013-01-12 18:16:00,67.1,66.5,29.50,SE,135,11.6,17.0,98,0.00,,---,0.38,VWS V14.00,2013-01-13 00:16:00,
2013-01-12 18:22:00,66.9,66.3,29.50,South,180,22.0,22.0,98,0.00,,---,0.38,VWS V14.00,2013-01-13 00:22:00,
2013-01-12 18:28:00,67.1,66.5,29.50,SSE,158,14.1,16.8,98,0.00,,---,0.38,VWS V14.00,2013-01-13 00:28:00,
2013-01-12 18:33:00,67.1,66.5,29.50,SE,135,16.7,16.7,98,0.00,,---,0.38,VWS V14.00,2013-01-13 00:33:00,
2013-01-12 18:38:00,67.1,66.5,29.50,SSE,158,14.7,17.0,98,0.00,,---,0.38,VWS V14.00,2013-01-13 00:38:00,
2013-01-12 18:44:00,67.1,66.5,29.50,SSW,202,10.0,12.5,98,0.00,,---,0.38,VWS V14.00,2013-01-13 00:44:00,
2013-01-12 18:49:00,67.1,66.5,29.50,SSE,158,16.9,16.9,98,0.00,,---,0.38,VWS V14.00,2013-01-13 00:49:00,
2013-01-12 18:54:00,67.1,66.5,29.50,ESE,112,16.7,16.7,98,0.00,,---,0.38,VWS V14.00,2013-01-13 00:54:00,
2013-01-12 18:59:00,67.1,66.5,29.50,SSE,158,18.9,18.9,98,0.00,,---,0.38,VWS V14.00,2013-01-13 00:59:00,
2013-01-12 19:04:00,67.3,66.7,29.50,SSW,202,11.1,17.7,98,0.00,,---,0.38,VWS V14.00,2013-01-13 01:04:00,
2013-01-12 19:09:00,67.3,66.4,29.50,South,180,10.8,12.5,97,0.00,,---,0.38,VWS V14.00,2013-01-13 01:09:00,
2013-01-12 19:14:00,67.3,66.4,29.50,South,180,10.5,21.3,97,0.00,,---,0.38,VWS V14.00,2013-01-13 01:14:00,
2013-01-12 19:19:00,67.3,66.4,29.50,SSE,158,14.1,14.1,97,0.04,,---,0.42,VWS V14.00,2013-01-13 01:19:00,
2013-01-12 19:24:00,67.1,66.2,29.50,SW,225,13.0,15.7,97,0.04,,---,0.42,VWS V14.00,2013-01-13 01:24:00,
2013-01-12 19:30:00,67.1,66.5,29.50,SSW,202,20.0,20.0,98,0.04,,---,0.42,VWS V14.00,2013-01-13 01:30:00,
2013-01-12 19:35:00,67.1,66.5,29.50,SSE,158,9.1,13.2,98,0.08,,---,0.46,VWS V14.00,2013-01-13 01:35:00,
2013-01-12 19:40:00,66.9,66.3,29.50,South,180,9.1,11.0,98,0.08,,---,0.46,VWS V14.00,2013-01-13 01:40:00,
2013-01-12 19:45:00,66.9,66.3,29.50,SSE,158,22.5,22.5,98,0.12,,---,0.50,VWS V14.00,2013-01-13 01:45:00,
2013-01-12 19:50:00,66.7,66.2,29.50,SSW,202,13.6,13.6,98,0.16,,---,0.54,VWS V14.00,2013-01-13 01:50:00,
2013-01-12 19:56:00,66.7,66.2,29.50,SSE,158,14.7,16.1,98,0.21,,---,0.59,VWS V14.00,2013-01-13 01:56:00,
2013-01-12 20:01:00,66.7,66.2,29.50,SSE,158,10.5,14.3,98,0.21,,---,0.59,VWS V14.00,2013-01-13 02:01:00,
2013-01-12 20:06:00,66.6,66.0,29.50,South,180,14.4,14.5,98,0.25,,---,0.63,VWS V14.00,2013-01-13 02:06:00,
2013-01-12 20:11:00,66.6,66.0,29.50,South,180,15.8,15.8,98,0.25,,---,0.63,VWS V14.00,2013-01-13 02:11:00,
2013-01-12 20:16:00,66.6,66.0,29.50,SSE,158,8.0,9.6,98,0.25,,---,0.63,VWS V14.00,2013-01-13 02:16:00,
2013-01-12 20:22:00,66.4,65.8,29.50,SSE,158,8.0,8.0,98,0.21,,---,0.63,VWS V14.00,2013-01-13 02:22:00,
2013-01-12 20:27:00,66.6,66.0,29.50,SSE,158,13.9,13.9,98,0.21,,---,0.63,VWS V14.00,2013-01-13 02:27:00,
2013-01-12 20:33:00,66.4,65.8,29.50,SSE,158,14.1,15.2,98,0.17,,---,0.63,VWS V14.00,2013-01-13 02:33:00,
2013-01-12 20:38:00,66.4,65.8,29.50,SSW,202,13.6,13.6,98,0.17,,---,0.63,VWS V14.00,2013-01-13 02:38:00,
2013-01-12 20:43:00,66.4,65.8,29.50,South,180,9.1,15.7,98,0.17,,---,0.63,VWS V14.00,2013-01-13 02:43:00,
2013-01-12 20:48:00,66.4,65.8,29.50,SSE,158,10.2,12.5,98,0.13,,---,0.63,VWS V14.00,2013-01-13 02:48:00,
2013-01-12 20:53:00,66.4,65.8,29.50,South,180,12.7,12.7,98,0.09,,---,0.63,VWS V14.00,2013-01-13 02:53:00,
2013-01-12 20:58:00,66.4,65.8,29.50,South,180,11.6,17.2,98,0.04,,---,0.63,VWS V14.00,2013-01-13 02:58:00,
2013-01-12 21:03:00,66.4,65.8,29.50,South,180,17.5,17.5,98,0.04,,---,0.63,VWS V14.00,2013-01-13 03:03:00,
2013-01-12 21:08:00,66.4,65.8,29.50,SE,135,8.0,10.7,98,0.00,,---,0.63,VWS V14.00,2013-01-13 03:08:00,
2013-01-12 21:13:00,66.4,65.8,29.50,West,270,11.6,11.6,98,0.00,,---,0.63,VWS V14.00,2013-01-13 03:13:00,
2013-01-12 21:18:00,66.4,65.8,29.50,SSE,158,7.7,12.5,98,0.00,,---,0.63,VWS V14.00,2013-01-13 03:18:00,
2013-01-12 21:23:00,66.4,65.8,29.50,SSW,202,13.3,13.3,98,0.00,,---,0.63,VWS V14.00,2013-01-13 03:23:00,
2013-01-12 21:28:00,66.4,65.8,29.50,SSE,158,16.7,16.7,98,0.00,,---,0.63,VWS V14.00,2013-01-13 03:28:00,
2013-01-12 21:34:00,66.4,65.8,29.47,South,180,11.1,13.9,98,0.00,,---,0.63,VWS V14.00,2013-01-13 03:34:00,
2013-01-12 21:40:00,66.4,65.8,29.47,SSW,202,10.8,10.8,98,0.00,,---,0.63,VWS V14.00,2013-01-13 03:40:00,
2013-01-12 21:45:00,66.4,65.8,29.50,West,270,7.2,8.7,98,0.00,,---,0.63,VWS V14.00,2013-01-13 03:45:00,
2013-01-12 21:50:00,66.4,65.8,29.50,SW,225,5.5,6.5,98,0.00,,---,0.63,VWS V14.00,2013-01-13 03:50:00,
2013-01-12 21:55:00,66.4,65.8,29.50,WSW,248,2.7,5.6,98,0.00,,---,0.63,VWS V14.00,2013-01-13 03:55:00,
2013-01-12 22:01:00,66.2,65.6,29.50,NNE,22,5.2,5.2,98,0.00,,---,0.63,VWS V14.00,2013-01-13 04:01:00,
2013-01-12 22:06:00,65.1,63.7,29.50,NW,315,5.8,5.8,95,0.00,,---,0.63,VWS V14.00,2013-01-13 04:06:00,
2013-01-12 22:12:00,64.8,62.7,29.50,North,0,2.7,2.7,93,0.00,,---,0.63,VWS V14.00,2013-01-13 04:12:00,
2013-01-12 22:17:00,64.4,62.6,29.50,NW,315,4.4,4.4,94,0.00,,---,0.63,VWS V14.00,2013-01-13 04:17:00,
2013-01-12 22:23:00,63.9,62.7,29.50,West,270,6.3,6.3,96,0.04,,---,0.67,VWS V14.00,2013-01-13 04:23:00,
2013-01-12 22:28:00,63.9,63.0,29.50,North,0,6.3,6.3,97,0.08,,---,0.71,VWS V14.00,2013-01-13 04:28:00,
2013-01-12 22:34:00,63.1,62.3,29.53,NW,315,5.8,5.8,97,0.12,,---,0.75,VWS V14.00,2013-01-13 04:34:00,
2013-01-12 22:39:00,62.4,61.6,29.53,NW,315,4.6,4.6,97,0.24,,---,0.87,VWS V14.00,2013-01-13 04:39:00,
2013-01-12 22:45:00,62.1,61.5,29.53,WNW,292,13.0,13.0,98,0.29,,---,0.92,VWS V14.00,2013-01-13 04:45:00,
2013-01-12 22:50:00,61.5,61.0,29.53,North,0,5.2,8.7,98,0.41,,---,1.04,VWS V14.00,2013-01-13 04:50:00,
2013-01-12 22:55:00,59.2,58.3,29.53,West,270,8.3,8.3,97,0.50,,---,1.13,VWS V14.00,2013-01-13 04:55:00,
2013-01-12 23:02:00,56.7,54.1,29.56,NE,45,8.6,14.3,91,0.50,,---,1.13,VWS V14.00,2013-01-13 05:02:00,
2013-01-12 23:03:00,56.7,54.1,29.56,WSW,248,14.1,14.1,91,0.50,,---,1.13,VWS V14.00,2013-01-13 05:03:00,
2013-01-12 23:04:00,55.2,52.0,29.56,NW,315,10.2,10.7,89,0.50,,---,1.13,VWS V14.00,2013-01-13 05:04:00,
2013-01-12 23:10:00,52.7,49.2,29.56,NW,315,8.8,11.0,88,0.54,,---,1.17,VWS V14.00,2013-01-13 05:10:00,
2013-01-12 23:15:00,51.8,49.0,29.56,NE,45,6.3,9.6,90,0.54,,---,1.17,VWS V14.00,2013-01-13 05:15:00,
2013-01-12 23:20:00,50.5,48.3,29.56,SE,135,16.9,20.4,92,0.54,,---,1.21,VWS V14.00,2013-01-13 05:20:00,
2013-01-12 23:26:00,49.6,47.7,29.56,NNE,22,14.4,14.4,93,0.54,,---,1.21,VWS V14.00,2013-01-13 05:26:00,
2013-01-12 23:31:00,48.6,46.9,29.62,North,0,23.1,23.1,94,0.58,,---,1.29,VWS V14.00,2013-01-13 05:31:00,
2013-01-12 23:36:00,47.8,46.5,29.62,NW,315,9.1,9.1,95,0.58,,---,1.37,VWS V14.00,2013-01-13 05:36:00,
2013-01-12 23:41:00,47.8,46.8,29.62,North,0,7.7,8.7,96,0.54,,---,1.41,VWS V14.00,2013-01-13 05:41:00,
2013-01-12 23:46:00,47.5,47.0,29.59,North,0,8.0,10.1,98,0.45,,---,1.41,VWS V14.00,2013-01-13 05:46:00,
2013-01-12 23:52:00,47.1,46.6,29.59,NNE,22,13.9,13.9,98,0.42,,---,1.46,VWS V14.00,2013-01-13 05:52:00,
2013-01-12 23:57:00,46.6,46.0,29.59,North,0,16.4,16.4,98,0.33,,---,1.46,VWS V14.00,2013-01-13 05:57:00,